Regional Weather Roundup
Issued by NWS State College, PA

Home | Current Version | Previous Version | Graphics & Text | Print | Product List | Glossary On
Versions: 1 2 3 4 5 6 7 8 9 10 11 12 13 14 15 16 17 18 19 20 21 22 23 24 25 26 27 28 29 30 31 32 33 34 35 36 37 38 39 40 41 42 43 44 45 46 47 48 49 50
000
ASUS41 KCTP 241210
RWRCTP

REGIONAL WEATHER ROUNDUP
NATIONAL WEATHER SERVICE STATE COLLEGE PA
800 AM EDT WED AUG 24 2016

Note: "fair" indicates few or no clouds below 12,000 feet with no
significant weather and/or obstructions to visibility.

* = STATION THAT DOES NOT REPORT PRECIPITATION /E.G. RAIN...SNOW...ETC/
    THUNDER OR FOG.

PAZ002>004-007>009-013>016-020>023-029>032-241300-
WESTERN PENNSYLVANIA

CITY           SKY/WX    TMP DP  RH WIND       PRES   REMARKS
ERIE           SUNNY     67  58  72 S9        30.24R
MEADVILLE      SUNNY     64  58  80 CALM      30.27R
FRANKLIN*      SUNNY     57  54  88 CALM      30.29R
NEW CASTLE     FAIR      59  58  96 CALM      30.27R
BEAVER COUNTY  SUNNY     63  61  94 SE5       30.26S
BUTLER*        NOT AVBL
PITTSBURGH INT PTSUNNY   63  58  83 CALM      30.25S
PITTSBURGH     SUNNY     64  60  87 S7        30.26R
INDIANA*       SUNNY     66  63  88 CALM      30.31R
LATROBE        SUNNY     61  61 100 CALM      30.28S
WASHINGTON CO* MOSUNNY   61  59  94 CALM      30.26S
$$

PAZ004>006-010>012-017>019-024>028-033>037-041-042-045-046-049>053-241300-
CENTRAL PENNSYLVANIA

CITY           SKY/WX    TMP DP  RH WIND       PRES   REMARKS
BRADFORD       SUNNY     58  57  97 E5        30.31S
DUBOIS         SUNNY     62  56  80 E6        30.29S
CLEARFIELD     SUNNY     57  57 100 NE3       30.32R
JOHNSTOWN      SUNNY     65  61  87 S5        30.33R
ALTOONA        SUNNY     63  61  93 CALM      30.32S FOG
STATE COLLEGE  SUNNY     59  57  94 CALM      30.32R
WILLIAMSPORT   FOG       60  58  92 CALM      30.30S VSB 3/4
SELINSGROVE    FOG       60  60 100 CALM      30.32R VSB 1/4
FT INDIANTOWN  SUNNY     62  60  92 E2        30.31R
CAPITAL CITY   SUNNY     68  62  81 CALM      30.31R
HARRISBURG     SUNNY     67  63  87 E3        30.30R
YORK           SUNNY     63  59  87 CALM      30.31R
$$

PAZ038>040-043-044-047-048-054-055-060>062-067>071-241300-
EASTERN PENNSYLVANIA

CITY           SKY/WX    TMP DP  RH WIND       PRES   REMARKS
SCRANTON       SUNNY     62  57  83 CALM      30.32R
MOUNT POCONO   SUNNY     63  57  81 CALM      30.35R
ALLENTOWN      SUNNY     64  59  83 CALM      30.32R
QUAKERTOWN*    SUNNY     63  57  82 CALM      30.33R
READING        SUNNY     65  60  84 CALM      30.31R
LANCASTER      SUNNY     62  62 100 CALM      30.32R FOG
COATESVILLE    SUNNY     66  61  82 W5        30.33S
POTTSTOWN      MOSUNNY   63  60  90 CALM      30.33R
BLUE BELL      SUNNY     64  61  88 CALM      30.31S
DOYLESTOWN     SUNNY     67  61  81 S3        30.31R
WILLOW GROVE   NOT AVBL
NORTH PHILA    SUNNY     70  62  76 W5        30.33R
PHILADELPHIA   MOSUNNY   71  59  65 W5        30.31R
$$



USA.gov is the U.S. government's official web portal to all federal, state and local government web resources and services.